Location: Serin Observatory
(40.5200°N, 74.4500°W)
Time: 16:58:31
(UTC+00:00)

SL-8 R/B - Visible Passes

Search period start: 27 August 2016 00:00
Search period end: 06 September 2016 00:00
Orbit: 657 x 668 km, 48.4° (Epoch: 27 August)

Date Brightness Start Highest point End Pass type
(mag) Time Alt. Az. Time Alt. Az. Time Alt. Az.
30 Aug 6.3 09:31:47 10° SSE 09:34:01 13° SE 09:36:17 10° ESE visible
01 Sep 6.1 08:51:14 10° SSE 08:53:46 14° SE 08:56:19 10° E visible
02 Sep 5.0 09:20:10 10° SSW 09:24:29 34° SE 09:28:50 10° ENE visible
03 Sep 5.9 08:12:11 14° SSE 08:13:31 16° SE 08:16:18 10° E visible
03 Sep 3.8 09:50:41 10° SW 09:55:27 77° SSE 10:00:16 10° ENE visible
04 Sep 4.7 08:42:17 26° S 08:44:15 37° SE 08:48:39 10° ENE visible
05 Sep 6.0 07:34:18 16° ESE 07:34:18 16° ESE 07:36:17 10° E visible
05 Sep 3.7 09:12:18 23° SW 09:15:14 82° SSE 09:20:03 10° ENE visible
